Location: De Har
(53.3413°N, 6.6858°E)
Time: 08:06:09
(UTC+00:00)

Meteor 1-26 Rocket - Pass Details

Date: 22 April 2026
Orbit: 805 x 927 km, 81.3° (Epoch: 15 May)

Event Time Altitude Azimuth Distance (km) Brightness Sun altitude
Exits shadow 01:51:51 31° 233° (SW) 1,393 4.8 -18.0°
Maximum altitude 01:54:07 50° 290° (WNW) 1,025 4.5 -17.8°
Drops below altitude 10° 01:59:24 10° 6° (N) 2,415 7.4 -17.3°
Sets 02:01:54 0° 12° (NNE) 3,363 8.5 -17.1°
